timestamp,wind_dir_avg,wind_spd_avg,wind_spd_max_dir,wind_spd_gust,battery_voltage,lat,long
2023-09-06 00:04:00+00:00,45.0,6.02,44.0,6.89,12.49,47.59359,-54.27349
2023-09-06 00:14:01+00:00,49.0,5.57,47.0,6.06,12.49,47.59359,-54.27349
2023-09-06 00:24:01+00:00,46.0,5.53,41.0,6.12,12.49,47.59359,-54.27349
2023-09-06 00:34:01+00:00,48.0,5.08,46.0,5.48,12.49,47.59359,-54.27349
2023-09-06 00:44:01+00:00,49.0,4.59,45.0,5.36,12.49,47.59359,-54.27349
2023-09-06 00:54:01+00:00,47.0,5.33,44.0,5.81,12.49,47.59359,-54.27349
2023-09-06 01:04:01+00:00,51.0,5.29,51.0,5.84,12.49,47.59359,-54.27349
2023-09-06 01:14:01+00:00,45.0,5.52,45.0,6.08,12.49,47.59359,-54.27349
2023-09-06 01:24:01+00:00,50.0,5.23,50.0,5.73,12.49,47.59359,-54.27349
2023-09-06 01:34:01+00:00,53.0,5.65,55.0,6.26,12.49,47.59359,-54.27349
2023-09-06 01:44:01+00:00,48.0,5.68,46.0,6.06,12.49,47.59359,-54.27349
2023-09-06 01:54:01+00:00,48.0,6.37,51.0,7.07,12.49,47.59359,-54.27349
2023-09-06 02:04:01+00:00,51.0,5.58,49.0,6.34,12.49,47.59359,-54.27349
2023-09-06 02:14:01+00:00,60.0,4.16,67.0,4.98,12.41,47.59359,-54.27349
2023-09-06 02:24:01+00:00,59.0,4.63,61.0,5.5,12.41,47.59359,-54.27349
2023-09-06 02:34:01+00:00,51.0,5.81,50.0,6.24,12.41,47.59359,-54.27349
2023-09-06 02:44:01+00:00,52.0,4.17,59.0,5.63,12.41,47.59359,-54.27349
2023-09-06 02:54:01+00:00,53.0,4.67,53.0,5.2,12.41,47.59359,-54.27349
2023-09-06 03:04:01+00:00,45.0,5.37,46.0,5.94,12.41,47.59359,-54.27349
2023-09-06 03:14:01+00:00,50.0,4.54,50.0,5.07,12.41,47.59359,-54.27349
2023-09-06 03:24:01+00:00,51.0,4.18,54.0,4.88,12.41,47.59359,-54.27349
2023-09-06 03:34:01+00:00,50.0,5.05,52.0,5.55,12.41,47.59359,-54.27349
2023-09-06 03:44:01+00:00,41.0,4.81,39.0,5.49,12.41,47.59359,-54.27349
2023-09-06 03:54:01+00:00,45.0,5.03,50.0,5.53,12.41,47.59359,-54.27349
2023-09-06 04:04:01+00:00,44.0,4.93,43.0,5.48,12.41,47.59359,-54.27349
2023-09-06 04:14:00+00:00,44.0,4.38,38.0,5.0,12.41,47.59359,-54.27349
2023-09-06 04:24:00+00:00,43.0,5.72,48.0,6.46,12.41,47.59359,-54.27349
2023-09-06 04:34:00+00:00,46.0,6.06,48.0,6.97,12.41,47.59359,-54.27349
2023-09-06 04:44:00+00:00,45.0,6.37,47.0,6.91,12.41,47.59359,-54.27349
2023-09-06 04:54:00+00:00,43.0,5.87,44.0,6.35,12.41,47.59359,-54.27349
2023-09-06 05:04:00+00:00,47.0,5.98,48.0,6.48,12.41,47.59359,-54.27349
2023-09-06 05:14:00+00:00,53.0,5.78,52.0,6.48,12.41,47.59359,-54.27349
2023-09-06 05:24:00+00:00,47.0,6.01,49.0,6.57,12.41,47.59359,-54.27349
2023-09-06 05:34:00+00:00,52.0,5.89,51.0,6.57,12.41,47.59359,-54.27349
2023-09-06 05:44:00+00:00,44.0,5.91,44.0,6.34,12.41,47.59359,-54.27349
2023-09-06 05:54:00+00:00,52.0,4.66,50.0,5.04,12.41,47.59359,-54.27349
2023-09-06 06:04:00+00:00,50.0,4.36,51.0,4.94,12.41,47.59359,-54.27349
2023-09-06 06:14:00+00:00,36.0,4.26,36.0,4.66,12.41,47.59359,-54.27349
2023-09-06 06:24:00+00:00,48.0,4.47,48.0,4.85,12.41,47.59359,-54.27349
2023-09-06 06:34:00+00:00,47.0,3.28,50.0,3.88,12.41,47.59359,-54.27349
2023-09-06 06:44:00+00:00,48.0,2.83,46.0,3.42,12.41,47.59359,-54.27349
2023-09-06 06:54:00+00:00,38.0,3.39,37.0,3.6,12.41,47.59359,-54.27349
2023-09-06 07:04:00+00:00,45.0,3.74,49.0,4.14,12.41,47.59359,-54.27349
2023-09-06 07:14:01+00:00,49.0,4.47,46.0,4.85,12.33,47.59359,-54.27349
2023-09-06 07:24:01+00:00,40.0,4.97,42.0,5.48,12.33,47.59359,-54.27349
2023-09-06 07:34:01+00:00,44.0,5.13,45.0,5.59,12.33,47.59359,-54.27349
2023-09-06 07:44:01+00:00,53.0,4.99,52.0,5.46,12.33,47.59359,-54.27349
2023-09-06 07:54:01+00:00,52.0,5.33,53.0,5.78,12.33,47.59359,-54.27349
2023-09-06 08:04:01+00:00,51.0,5.16,50.0,5.65,12.33,47.59359,-54.27349
2023-09-06 08:14:01+00:00,52.0,4.53,52.0,5.19,12.33,47.59359,-54.27349
2023-09-06 08:24:01+00:00,49.0,4.15,48.0,4.75,12.33,47.59359,-54.27349
2023-09-06 08:34:01+00:00,51.0,4.43,50.0,4.94,12.33,47.59359,-54.27349
2023-09-06 08:44:01+00:00,50.0,4.61,45.0,5.22,12.33,47.59359,-54.27349
2023-09-06 08:54:01+00:00,54.0,4.25,53.0,4.8,12.33,47.59359,-54.27349
2023-09-06 09:04:01+00:00,48.0,4.31,55.0,4.81,12.33,47.59359,-54.27349
2023-09-06 09:14:00+00:00,43.0,4.36,41.0,5.28,12.25,47.59359,-54.27349
2023-09-06 09:24:00+00:00,45.0,4.86,48.0,5.44,12.25,47.59359,-54.27349
2023-09-06 09:34:00+00:00,41.0,5.17,41.0,5.73,12.25,47.59359,-54.27349
2023-09-06 09:44:00+00:00,46.0,5.7,59.0,6.82,12.25,47.59359,-54.27349
2023-09-06 09:54:00+00:00,47.0,6.41,50.0,7.05,12.25,47.59359,-54.27349
2023-09-06 10:04:00+00:00,42.0,5.9,47.0,6.43,12.25,47.59359,-54.27349
2023-09-06 10:14:00+00:00,48.0,5.99,52.0,6.53,12.89,47.59359,-54.27349
2023-09-06 10:24:00+00:00,41.0,5.95,46.0,6.64,12.89,47.59359,-54.27349
2023-09-06 10:34:00+00:00,49.0,6.84,47.0,7.56,12.89,47.59359,-54.27349
2023-09-06 10:44:00+00:00,42.0,6.14,43.0,6.81,12.89,47.59359,-54.27349
2023-09-06 10:54:00+00:00,33.0,5.25,31.0,5.86,12.89,47.59359,-54.27349
2023-09-06 11:04:00+00:00,32.0,5.18,33.0,5.6,12.89,47.59359,-54.27349
2023-09-06 11:14:00+00:00,31.0,4.76,31.0,5.14,13.29,47.59359,-54.27349
2023-09-06 11:24:00+00:00,34.0,5.13,32.0,5.59,13.29,47.59359,-54.27349
2023-09-06 11:34:00+00:00,36.0,5.45,35.0,5.79,13.29,47.59359,-54.27349
2023-09-06 11:44:00+00:00,40.0,4.76,37.0,5.19,13.29,47.59359,-54.27349
2023-09-06 11:54:00+00:00,37.0,4.43,37.0,5.03,13.29,47.59359,-54.27349
2023-09-06 12:04:00+00:00,34.0,4.53,34.0,5.15,13.29,47.59359,-54.27349
2023-09-06 12:14:00+00:00,35.0,4.56,35.0,4.93,14.24,47.59359,-54.27349
2023-09-06 12:24:00+00:00,36.0,4.37,38.0,4.72,14.24,47.59359,-54.27349
2023-09-06 12:34:00+00:00,42.0,3.78,41.0,4.14,14.24,47.59359,-54.27349
2023-09-06 12:44:00+00:00,43.0,3.88,43.0,4.13,14.24,47.59359,-54.27349
2023-09-06 12:54:00+00:00,41.0,3.63,42.0,3.81,14.24,47.59359,-54.27349
2023-09-06 13:04:00+00:00,32.0,3.11,31.0,3.34,14.24,47.59359,-54.27349
2023-09-06 13:14:01+00:00,30.0,2.87,34.0,3.16,14.32,47.59359,-54.27349
2023-09-06 13:24:01+00:00,28.0,3.67,32.0,3.96,14.32,47.59359,-54.27349
2023-09-06 13:34:01+00:00,30.0,3.92,31.0,4.24,14.32,47.59359,-54.27349
2023-09-06 13:44:01+00:00,30.0,3.61,31.0,3.85,14.32,47.59359,-54.27349
2023-09-06 13:54:01+00:00,22.0,2.92,19.0,3.38,14.32,47.59359,-54.27349
2023-09-06 14:04:01+00:00,23.0,3.09,22.0,3.52,14.32,47.59359,-54.27349
2023-09-06 14:14:00+00:00,26.0,3.05,30.0,3.44,13.84,47.59359,-54.27349
2023-09-06 14:24:00+00:00,32.0,2.46,35.0,2.8,13.84,47.59359,-54.27349
2023-09-06 14:34:00+00:00,30.0,2.26,32.0,2.45,13.84,47.59359,-54.27349
2023-09-06 14:44:00+00:00,29.0,1.85,36.0,2.18,13.84,47.59359,-54.27349
2023-09-06 14:54:00+00:00,26.0,1.59,29.0,1.89,13.84,47.59359,-54.27349
2023-09-06 15:04:00+00:00,27.0,1.57,23.0,1.82,13.84,47.59359,-54.27349
2023-09-06 15:14:00+00:00,38.0,1.65,41.0,1.91,13.53,47.59359,-54.27349
2023-09-06 15:24:00+00:00,33.0,1.55,35.0,1.76,13.53,47.59359,-54.27349
2023-09-06 15:34:00+00:00,13.0,0.66,12.0,0.88,13.53,47.59359,-54.27349
2023-09-06 15:44:00+00:00,344.0,0.26,349.0,0.45,13.53,47.59359,-54.27349
2023-09-06 15:54:00+00:00,292.0,0.52,288.0,0.69,13.53,47.59359,-54.27349
2023-09-06 16:04:00+00:00,271.0,0.81,263.0,1.11,13.53,47.59359,-54.27349
2023-09-06 16:14:01+00:00,270.0,2.01,262.0,2.9,14.24,47.59359,-54.27349
2023-09-06 16:24:01+00:00,225.0,1.45,217.0,2.03,14.24,47.59359,-54.27349
2023-09-06 16:34:01+00:00,216.0,2.64,223.0,3.11,14.24,47.59359,-54.27349
2023-09-06 16:44:01+00:00,225.0,3.35,239.0,4.84,14.24,47.59359,-54.27349
2023-09-06 16:54:01+00:00,212.0,2.91,223.0,3.65,14.24,47.59359,-54.27349
2023-09-06 17:04:01+00:00,216.0,3.62,216.0,4.21,14.24,47.59359,-54.27349
2023-09-06 17:14:00+00:00,220.0,5.0,219.0,5.62,14.32,47.59359,-54.27349
2023-09-06 17:24:00+00:00,227.0,6.27,222.0,7.63,14.32,47.59359,-54.27349
2023-09-06 17:34:00+00:00,235.0,7.38,234.0,8.19,14.32,47.59359,-54.27349
2023-09-06 17:44:00+00:00,236.0,6.36,234.0,7.45,14.32,47.59359,-54.27349
2023-09-06 17:54:00+00:00,235.0,5.97,237.0,7.12,14.32,47.59359,-54.27349
2023-09-06 18:04:00+00:00,234.0,6.53,240.0,7.43,14.32,47.59359,-54.27349
2023-09-06 18:14:00+00:00,232.0,5.84,228.0,7.02,14.0,47.59359,-54.27349
2023-09-06 18:24:00+00:00,240.0,5.07,242.0,5.59,14.0,47.59359,-54.27349
2023-09-06 18:34:00+00:00,232.0,5.01,231.0,5.68,14.0,47.59359,-54.27349
2023-09-06 18:44:00+00:00,226.0,5.72,223.0,6.46,14.0,47.59359,-54.27349
2023-09-06 18:54:00+00:00,225.0,5.95,229.0,6.68,14.0,47.59359,-54.27349
2023-09-06 19:04:00+00:00,224.0,6.02,222.0,6.75,14.0,47.59359,-54.27349
2023-09-06 19:14:01+00:00,226.0,6.3,225.0,7.24,13.84,47.59359,-54.27349
2023-09-06 19:24:01+00:00,229.0,5.73,229.0,6.6,13.84,47.59359,-54.27349
2023-09-06 19:34:01+00:00,227.0,5.69,221.0,6.49,13.84,47.59359,-54.27349
2023-09-06 19:44:01+00:00,225.0,6.23,229.0,7.39,13.84,47.59359,-54.27349
2023-09-06 19:54:01+00:00,223.0,6.38,221.0,6.98,13.84,47.59359,-54.27349
2023-09-06 20:04:01+00:00,225.0,6.77,222.0,7.7,13.84,47.59359,-54.27349
2023-09-06 20:14:01+00:00,226.0,6.24,231.0,7.1,13.44,47.59359,-54.27349
2023-09-06 20:24:01+00:00,222.0,5.54,227.0,6.05,13.44,47.59359,-54.27349
2023-09-06 20:34:01+00:00,222.0,4.61,220.0,5.54,13.44,47.59359,-54.27349
2023-09-06 20:44:01+00:00,225.0,4.59,230.0,5.56,13.44,47.59359,-54.27349
2023-09-06 20:54:01+00:00,236.0,5.01,230.0,5.87,13.44,47.59359,-54.27349
2023-09-06 21:04:01+00:00,236.0,4.05,232.0,4.52,13.44,47.59359,-54.27349
2023-09-06 21:14:00+00:00,232.0,5.09,230.0,5.51,13.21,47.59359,-54.27349
2023-09-06 21:24:00+00:00,240.0,4.17,247.0,5.34,13.21,47.59359,-54.27349
2023-09-06 21:34:00+00:00,243.0,3.52,247.0,4.08,13.21,47.59359,-54.27349
2023-09-06 21:44:00+00:00,240.0,3.5,242.0,3.74,13.21,47.59359,-54.27349
2023-09-06 21:54:00+00:00,245.0,3.48,246.0,3.84,13.21,47.59359,-54.27349
2023-09-06 22:04:00+00:00,245.0,3.75,245.0,4.12,13.21,47.59359,-54.27349
2023-09-06 22:14:00+00:00,244.0,3.49,245.0,3.83,12.73,47.59359,-54.27349
2023-09-06 22:24:00+00:00,234.0,3.81,234.0,3.99,12.73,47.59359,-54.27349
2023-09-06 22:34:00+00:00,246.0,3.53,248.0,3.81,12.73,47.59359,-54.27349
2023-09-06 22:44:00+00:00,243.0,3.76,238.0,4.06,12.73,47.59359,-54.27349
2023-09-06 22:54:00+00:00,243.0,3.25,243.0,3.4,12.73,47.59359,-54.27349
2023-09-06 23:04:00+00:00,239.0,2.97,238.0,3.08,12.73,47.59359,-54.27349
2023-09-06 23:14:00+00:00,234.0,2.91,234.0,3.07,12.49,47.59359,-54.27349
2023-09-06 23:24:00+00:00,227.0,2.15,229.0,2.4,12.49,47.59359,-54.27349
2023-09-06 23:34:00+00:00,226.0,2.1,234.0,2.54,12.49,47.59359,-54.27349
2023-09-06 23:44:00+00:00,229.0,2.05,228.0,2.24,12.49,47.59359,-54.27349
2023-09-06 23:54:00+00:00,222.0,1.72,220.0,2.04,12.49,47.59359,-54.27349
